Year,Month,Day,Hour,Minute,Value (Times are PST for windgust in km/hr)
2008,06,07,00,00,29.00
2008,06,07,00,01,11.30
2008,06,07,00,02,17.70
2008,06,07,00,03,8.10
2008,06,07,00,04,9.60
2008,06,07,00,05,8.10
2008,06,07,00,06,6.40
2008,06,07,00,07,8.10
2008,06,07,00,08,12.90
2008,06,07,00,09,20.90
2008,06,07,00,10,11.30
2008,06,07,00,11,9.60
2008,06,07,00,12,22.50
2008,06,07,01,02,24.20
2008,06,07,01,03,14.50
2008,06,07,01,04,25.70
2008,06,07,01,05,17.70
2008,06,07,01,06,16.10
2008,06,07,01,07,20.90
2008,06,07,01,08,17.70
2008,06,07,01,09,17.70
2008,06,07,01,10,22.50
2008,06,07,01,11,17.70
2008,06,07,01,12,14.50
2008,06,07,01,13,9.60
2008,06,07,01,14,14.50
2008,06,07,01,15,19.30
2008,06,07,01,16,14.50
2008,06,07,01,17,14.50
2008,06,07,01,18,19.30
2008,06,07,01,19,6.40
2008,06,07,01,20,19.30
2008,06,07,01,21,17.70
2008,06,07,01,22,14.50
2008,06,07,01,23,11.30
2008,06,07,01,24,14.50
2008,06,07,01,25,24.20
2008,06,07,01,26,9.60
2008,06,07,01,27,9.60
2008,06,07,01,28,19.30
2008,06,07,01,29,11.30
2008,06,07,01,30,19.30
2008,06,07,01,31,19.30
2008,06,07,01,32,9.60
2008,06,07,01,33,6.40
2008,06,07,01,34,16.10
2008,06,07,01,35,19.30
2008,06,07,01,36,11.30
2008,06,07,01,37,12.90
2008,06,07,01,38,11.30
2008,06,07,01,39,17.70
2008,06,07,01,40,19.30
2008,06,07,01,41,11.30
2008,06,07,01,42,14.50
2008,06,07,01,43,11.30
2008,06,07,01,44,14.50
2008,06,07,01,45,24.20
2008,06,07,01,46,20.90
2008,06,07,01,47,16.10
2008,06,07,01,48,19.30
2008,06,07,01,49,8.10
2008,06,07,01,50,6.40
2008,06,07,01,51,8.10
2008,06,07,01,52,16.10
2008,06,07,01,53,17.70
2008,06,07,01,54,19.30
2008,06,07,01,55,11.30
2008,06,07,01,56,9.60
2008,06,07,01,57,17.70
2008,06,07,01,58,9.60
2008,06,07,01,59,6.40
2008,06,07,02,00,16.10
2008,06,07,02,01,20.90
2008,06,07,02,02,19.30
2008,06,07,02,03,16.10
2008,06,07,02,04,9.60
2008,06,07,02,05,22.50
2008,06,07,02,06,9.60
2008,06,07,02,07,9.60
2008,06,07,02,08,16.10
2008,06,07,02,09,12.90
2008,06,07,02,10,4.80
2008,06,07,02,11,8.10
2008,06,07,02,12,17.70
2008,06,07,02,13,12.90
2008,06,07,02,14,8.10
2008,06,07,02,15,8.10
2008,06,07,02,16,16.10
2008,06,07,02,17,11.30
2008,06,07,02,18,16.10
2008,06,07,02,19,11.30
2008,06,07,02,20,8.10
2008,06,07,02,21,16.10
2008,06,07,02,22,9.60
2008,06,07,02,23,6.40
2008,06,07,02,24,8.10
2008,06,07,02,25,16.10
2008,06,07,02,26,9.60
2008,06,07,02,27,17.70
2008,06,07,02,28,11.30
2008,06,07,02,29,14.50
2008,06,07,02,30,6.40
2008,06,07,02,31,6.40
2008,06,07,02,32,6.40
2008,06,07,02,33,8.10
2008,06,07,02,34,19.30
2008,06,07,02,35,14.50
2008,06,07,02,36,6.40
2008,06,07,02,37,6.40
2008,06,07,02,38,16.10
2008,06,07,02,39,4.80
2008,06,07,02,40,19.30
2008,06,07,02,41,16.10
2008,06,07,02,42,8.10
2008,06,07,02,43,9.60
2008,06,07,02,44,19.30
2008,06,07,02,45,17.70
2008,06,07,02,46,9.60
2008,06,07,02,47,12.90
2008,06,07,02,48,8.10
2008,06,07,02,49,9.60
2008,06,07,02,50,6.40
2008,06,07,02,51,19.30
2008,06,07,02,52,14.50
2008,06,07,02,53,17.70
2008,06,07,02,54,16.10
2008,06,07,02,55,8.10
2008,06,07,02,56,14.50
2008,06,07,02,57,14.50
2008,06,07,02,58,8.10
2008,06,07,02,59,9.60
2008,06,07,03,00,9.60
2008,06,07,03,01,11.30
2008,06,07,03,02,19.30
2008,06,07,03,03,8.10
2008,06,07,03,04,14.50
2008,06,07,03,05,14.50
2008,06,07,03,06,19.30
2008,06,07,03,07,16.10
2008,06,07,03,08,12.90
2008,06,07,03,09,16.10
2008,06,07,03,10,16.10
2008,06,07,03,11,12.90
2008,06,07,03,12,9.60
2008,06,07,03,13,16.10
2008,06,07,03,14,11.30
2008,06,07,03,15,11.30
2008,06,07,03,16,19.30
2008,06,07,03,17,11.30
2008,06,07,03,18,9.60
2008,06,07,03,19,14.50
2008,06,07,03,20,16.10
2008,06,07,03,21,9.60
2008,06,07,03,22,6.40
2008,06,07,03,23,8.10
2008,06,07,03,24,6.40
2008,06,07,03,25,8.10
2008,06,07,03,26,17.70
2008,06,07,03,27,20.90
2008,06,07,03,28,16.10
2008,06,07,03,29,8.10
2008,06,07,03,30,17.70
2008,06,07,03,31,11.30
2008,06,07,03,32,11.30
2008,06,07,03,33,16.10
2008,06,07,03,34,9.60
2008,06,07,03,35,4.80
2008,06,07,03,36,9.60
2008,06,07,03,37,9.60
2008,06,07,03,38,8.10
2008,06,07,03,39,9.60
2008,06,07,03,40,16.10
2008,06,07,03,41,9.60
2008,06,07,03,42,8.10
2008,06,07,03,43,11.30
2008,06,07,03,44,8.10
2008,06,07,03,45,6.40
2008,06,07,03,46,3.20
2008,06,07,03,47,6.40
2008,06,07,03,48,11.30
2008,06,07,03,49,4.80
2008,06,07,03,50,16.10
2008,06,07,03,51,19.30
2008,06,07,03,52,14.50
2008,06,07,03,53,6.40
2008,06,07,03,54,11.30
2008,06,07,03,55,11.30
2008,06,07,03,56,8.10
2008,06,07,03,57,3.20
2008,06,07,03,58,9.60
2008,06,07,03,59,9.60
2008,06,07,04,00,6.40
2008,06,07,04,01,8.10
2008,06,07,04,02,17.70
2008,06,07,04,03,9.60
2008,06,07,04,04,6.40
2008,06,07,04,05,3.20
2008,06,07,04,06,4.80
2008,06,07,04,07,6.40
2008,06,07,04,08,11.30
2008,06,07,04,09,14.50
2008,06,07,04,10,11.30
2008,06,07,04,11,17.70
2008,06,07,04,12,11.30
2008,06,07,04,13,11.30
2008,06,07,04,14,3.20
2008,06,07,04,15,0.00
2008,06,07,04,16,4.80
2008,06,07,04,17,4.80
2008,06,07,04,18,6.40
2008,06,07,04,19,9.60
2008,06,07,04,20,17.70
2008,06,07,04,21,11.30
2008,06,07,04,22,8.10
2008,06,07,04,23,14.50
2008,06,07,04,24,9.60
2008,06,07,04,25,14.50
2008,06,07,04,26,8.10
2008,06,07,04,27,14.50
2008,06,07,04,28,19.30
2008,06,07,04,29,9.60
2008,06,07,04,30,11.30
2008,06,07,04,31,19.30
2008,06,07,04,32,11.30
2008,06,07,04,33,9.60
2008,06,07,04,34,8.10
2008,06,07,04,35,16.10
2008,06,07,04,36,17.70
2008,06,07,04,37,16.10
2008,06,07,04,38,8.10
2008,06,07,04,39,11.30
2008,06,07,04,40,6.40
2008,06,07,04,41,17.70
2008,06,07,04,42,16.10
2008,06,07,04,43,6.40
2008,06,07,04,44,19.30
2008,06,07,04,45,14.50
2008,06,07,04,46,9.60
2008,06,07,04,47,16.10
2008,06,07,04,48,8.10
2008,06,07,04,49,16.10
2008,06,07,04,50,12.90
2008,06,07,04,51,8.10
2008,06,07,04,52,16.10
2008,06,07,04,53,17.70
2008,06,07,04,54,19.30
2008,06,07,04,55,11.30
2008,06,07,04,56,19.30
2008,06,07,04,57,14.50
2008,06,07,04,58,4.80
2008,06,07,04,59,8.10
2008,06,07,05,00,8.10
2008,06,07,05,01,6.40
2008,06,07,05,02,4.80
2008,06,07,05,03,1.60
2008,06,07,05,04,8.10
2008,06,07,05,05,9.60
2008,06,07,05,06,11.30
2008,06,07,05,07,19.30
2008,06,07,05,08,16.10
2008,06,07,05,09,11.30
2008,06,07,05,10,6.40
2008,06,07,05,11,8.10
2008,06,07,05,12,9.60
2008,06,07,05,13,8.10
2008,06,07,05,14,9.60
2008,06,07,05,15,6.40
2008,06,07,05,16,4.80
2008,06,07,05,17,6.40
2008,06,07,05,18,8.10
2008,06,07,05,19,3.20
2008,06,07,05,20,3.20
2008,06,07,05,21,1.60
2008,06,07,05,22,6.40
2008,06,07,05,23,8.10
2008,06,07,05,24,1.60
2008,06,07,05,25,8.10
2008,06,07,05,26,9.60
2008,06,07,05,27,11.30
2008,06,07,05,28,11.30
2008,06,07,05,29,6.40
2008,06,07,05,30,9.60
2008,06,07,05,31,1.60
2008,06,07,05,32,1.60
2008,06,07,05,33,0.00
2008,06,07,05,34,6.40
2008,06,07,05,35,11.30
2008,06,07,05,36,8.10
2008,06,07,05,37,8.10
2008,06,07,05,38,8.10
2008,06,07,05,39,1.60
2008,06,07,05,40,4.80
2008,06,07,05,41,1.60
2008,06,07,05,42,6.40
2008,06,07,05,43,9.60
2008,06,07,05,44,6.40
2008,06,07,05,45,4.80
2008,06,07,05,46,6.40
2008,06,07,05,47,11.30
2008,06,07,05,48,11.30
2008,06,07,05,49,6.40
2008,06,07,05,50,11.30
2008,06,07,05,51,16.10
2008,06,07,05,52,8.10
2008,06,07,05,53,11.30
2008,06,07,05,54,11.30
2008,06,07,05,55,8.10
2008,06,07,05,56,8.10
2008,06,07,05,57,9.60
2008,06,07,05,58,8.10
2008,06,07,05,59,14.50
2008,06,07,06,00,14.50
2008,06,07,06,01,9.60
2008,06,07,06,02,6.40
2008,06,07,06,03,4.80
2008,06,07,06,04,6.40
2008,06,07,06,05,6.40
2008,06,07,06,06,6.40
2008,06,07,06,07,4.80
2008,06,07,06,08,6.40
2008,06,07,06,09,8.10
2008,06,07,06,10,11.30
2008,06,07,06,11,17.70
2008,06,07,06,12,17.70
2008,06,07,06,13,11.30
2008,06,07,06,14,9.60
2008,06,07,06,15,4.80
2008,06,07,06,16,12.90
2008,06,07,06,17,11.30
2008,06,07,06,18,4.80
2008,06,07,06,19,6.40
2008,06,07,06,20,4.80
2008,06,07,06,21,4.80
2008,06,07,06,22,3.20
2008,06,07,06,23,3.20
2008,06,07,06,24,11.30
2008,06,07,06,25,9.60
2008,06,07,06,26,9.60
2008,06,07,06,27,4.80
2008,06,07,06,28,3.20
2008,06,07,06,29,6.40
2008,06,07,06,30,6.40
2008,06,07,06,31,8.10
2008,06,07,06,32,8.10
2008,06,07,06,33,9.60
2008,06,07,06,34,6.40
2008,06,07,06,35,6.40
2008,06,07,06,36,8.10
2008,06,07,06,37,4.80
2008,06,07,06,38,1.60
2008,06,07,06,39,4.80
2008,06,07,06,40,6.40
2008,06,07,06,41,1.60
2008,06,07,06,42,6.40
2008,06,07,06,43,9.60
2008,06,07,06,44,9.60
2008,06,07,06,45,16.10
2008,06,07,06,46,4.80
2008,06,07,06,47,6.40
2008,06,07,06,48,6.40
2008,06,07,06,49,8.10
2008,06,07,06,50,1.60
2008,06,07,06,51,4.80
2008,06,07,06,52,6.40
2008,06,07,06,53,6.40
2008,06,07,06,54,4.80
2008,06,07,06,55,9.60
2008,06,07,06,56,16.10
2008,06,07,06,57,11.30
2008,06,07,06,58,16.10
2008,06,07,06,59,14.50
2008,06,07,07,00,11.30
2008,06,07,07,01,9.60
2008,06,07,07,02,20.90
2008,06,07,07,03,22.50
2008,06,07,07,04,24.20
2008,06,07,07,05,14.50
2008,06,07,07,06,9.60
2008,06,07,07,07,9.60
2008,06,07,07,08,6.40
2008,06,07,07,09,11.30
2008,06,07,07,10,14.50
2008,06,07,07,11,22.50
2008,06,07,07,12,11.30
2008,06,07,07,13,1.60
2008,06,07,07,14,6.40
2008,06,07,07,15,11.30
2008,06,07,07,16,6.40
2008,06,07,07,17,17.70
2008,06,07,07,18,17.70
2008,06,07,07,19,9.60
2008,06,07,07,20,12.90
2008,06,07,07,21,17.70
2008,06,07,07,22,14.50
2008,06,07,07,23,17.70
2008,06,07,07,24,16.10
2008,06,07,07,25,17.70
2008,06,07,07,26,19.30
2008,06,07,07,27,9.60
2008,06,07,07,28,6.40
2008,06,07,07,29,14.50
2008,06,07,07,30,9.60
2008,06,07,07,31,8.10
2008,06,07,07,32,11.30
2008,06,07,07,33,17.70
2008,06,07,07,34,17.70
2008,06,07,07,35,22.50
2008,06,07,07,36,11.30
2008,06,07,07,37,12.90
2008,06,07,07,38,6.40
2008,06,07,07,39,4.80
2008,06,07,07,40,6.40
2008,06,07,07,41,6.40
2008,06,07,07,42,16.10
2008,06,07,07,43,22.50
2008,06,07,07,44,14.50
2008,06,07,07,45,9.60
2008,06,07,07,46,22.50
2008,06,07,07,47,20.90
2008,06,07,07,48,19.30
2008,06,07,07,49,20.90
2008,06,07,07,50,8.10
2008,06,07,07,51,11.30
2008,06,07,07,52,22.50
2008,06,07,07,53,11.30
2008,06,07,07,54,11.30
2008,06,07,07,55,20.90
2008,06,07,07,56,11.30
2008,06,07,07,57,8.10
2008,06,07,07,58,9.60
2008,06,07,07,59,16.10
2008,06,07,08,00,8.10
2008,06,07,08,01,22.50
2008,06,07,08,02,22.50
2008,06,07,08,03,27.40
2008,06,07,08,04,16.10
2008,06,07,08,05,17.70
2008,06,07,08,06,11.30
2008,06,07,08,07,6.40
2008,06,07,08,08,14.50
2008,06,07,08,09,8.10
2008,06,07,08,10,19.30
2008,06,07,08,11,25.70
2008,06,07,08,12,16.10
2008,06,07,08,13,25.70
2008,06,07,08,14,33.80
2008,06,07,08,15,20.90
2008,06,07,08,16,29.00
2008,06,07,08,17,29.00
2008,06,07,08,18,16.10
2008,06,07,08,19,17.70
2008,06,07,08,20,11.30
2008,06,07,08,21,9.60
2008,06,07,08,22,17.70
2008,06,07,08,23,30.60
2008,06,07,08,24,27.40
2008,06,07,08,25,29.00
2008,06,07,08,26,20.90
2008,06,07,08,27,19.30
2008,06,07,08,28,24.20
2008,06,07,08,29,17.70
2008,06,07,08,30,19.30
2008,06,07,08,31,17.70
2008,06,07,08,32,17.70
2008,06,07,08,33,16.10
2008,06,07,08,34,16.10
2008,06,07,08,35,20.90
2008,06,07,08,36,19.30
2008,06,07,08,37,22.50
2008,06,07,08,38,30.60
2008,06,07,08,39,22.50
2008,06,07,08,40,30.60
2008,06,07,08,41,24.20
2008,06,07,08,42,17.70
2008,06,07,08,43,24.20
2008,06,07,08,44,25.70
2008,06,07,08,45,9.60
2008,06,07,08,46,16.10
2008,06,07,08,47,11.30
2008,06,07,08,48,22.50
2008,06,07,08,49,27.40
2008,06,07,08,50,24.20
2008,06,07,08,51,20.90
2008,06,07,08,52,25.70
2008,06,07,08,53,27.40
2008,06,07,08,54,27.40
2008,06,07,08,55,29.00
2008,06,07,08,56,24.20
2008,06,07,08,57,19.30
2008,06,07,08,58,20.90
2008,06,07,08,59,24.20
2008,06,07,09,00,17.70
2008,06,07,09,01,20.90
2008,06,07,09,02,22.50
2008,06,07,09,03,14.50
2008,06,07,09,04,17.70
2008,06,07,09,05,25.70
2008,06,07,09,06,30.60
2008,06,07,09,07,27.40
2008,06,07,09,08,24.20
2008,06,07,09,09,27.40
2008,06,07,09,10,25.70
2008,06,07,09,11,25.70
2008,06,07,09,12,22.50
2008,06,07,09,13,25.70
2008,06,07,09,14,22.50
2008,06,07,09,15,16.10
2008,06,07,09,16,17.70
2008,06,07,09,17,27.40
2008,06,07,09,18,30.60
2008,06,07,09,19,25.70
2008,06,07,09,20,24.20
2008,06,07,09,21,32.20
2008,06,07,09,22,20.90
2008,06,07,09,23,24.20
2008,06,07,09,24,19.30
2008,06,07,09,25,25.70
2008,06,07,09,26,19.30
2008,06,07,09,27,17.70
2008,06,07,09,28,27.40
2008,06,07,09,29,20.90
2008,06,07,09,30,29.00
2008,06,07,09,31,24.20
2008,06,07,09,32,22.50
2008,06,07,09,33,24.20
2008,06,07,09,34,27.40
2008,06,07,09,35,30.60
2008,06,07,09,36,29.00
2008,06,07,09,37,19.30
2008,06,07,09,38,30.60
2008,06,07,09,39,30.60
2008,06,07,09,40,30.60
2008,06,07,09,41,22.50
2008,06,07,09,42,24.20
2008,06,07,09,43,27.40
2008,06,07,09,44,25.70
2008,06,07,09,45,19.30
2008,06,07,09,46,25.70
2008,06,07,09,47,29.00
2008,06,07,09,48,19.30
2008,06,07,09,49,32.20
2008,06,07,09,50,14.50
2008,06,07,09,51,25.70
2008,06,07,09,52,19.30
2008,06,07,09,53,33.80
2008,06,07,09,54,27.40
2008,06,07,09,55,16.10
2008,06,07,09,56,17.70
2008,06,07,09,57,17.70
2008,06,07,09,58,17.70
2008,06,07,09,59,27.40
2008,06,07,10,00,16.10
2008,06,07,10,01,20.90
2008,06,07,10,02,27.40
2008,06,07,10,03,35.40
2008,06,07,10,04,24.20
2008,06,07,10,05,20.90
2008,06,07,10,06,25.70
2008,06,07,10,07,20.90
2008,06,07,10,08,11.30
2008,06,07,10,09,19.30
2008,06,07,10,10,11.30
2008,06,07,10,11,19.30
2008,06,07,10,12,27.40
2008,06,07,10,13,24.20
2008,06,07,10,14,20.90
2008,06,07,10,15,16.10
2008,06,07,10,16,22.50
2008,06,07,10,17,19.30
2008,06,07,10,18,20.90
2008,06,07,10,19,27.40
2008,06,07,10,20,25.70
2008,06,07,10,21,25.70
2008,06,07,10,22,27.40
2008,06,07,10,23,32.20
2008,06,07,10,24,33.80
2008,06,07,10,25,24.20
2008,06,07,10,26,29.00
2008,06,07,10,27,27.40
2008,06,07,10,28,27.40
2008,06,07,10,29,24.20
2008,06,07,10,30,25.70
2008,06,07,10,31,30.60
2008,06,07,10,32,30.60
2008,06,07,10,33,25.70
2008,06,07,10,34,27.40
2008,06,07,10,35,22.50
2008,06,07,10,36,17.70
2008,06,07,10,37,25.70
2008,06,07,10,38,25.70
2008,06,07,10,39,27.40
2008,06,07,10,40,19.30
2008,06,07,10,41,11.30
2008,06,07,10,42,14.50
2008,06,07,10,43,17.70
2008,06,07,10,44,19.30
2008,06,07,10,45,12.90
2008,06,07,10,46,14.50
2008,06,07,10,47,19.30
2008,06,07,10,48,20.90
2008,06,07,10,49,17.70
2008,06,07,10,50,32.20
2008,06,07,10,51,29.00
2008,06,07,10,52,25.70
2008,06,07,10,53,35.40
2008,06,07,10,54,32.20
2008,06,07,10,55,27.40
2008,06,07,10,56,19.30
2008,06,07,10,57,20.90
2008,06,07,10,58,22.50
2008,06,07,10,59,19.30
2008,06,07,11,00,20.90
2008,06,07,11,01,16.10
2008,06,07,11,02,24.20
2008,06,07,11,03,30.60
2008,06,07,11,04,17.70
2008,06,07,11,05,20.90
2008,06,07,11,06,24.20
2008,06,07,11,07,25.70
2008,06,07,11,08,25.70
2008,06,07,11,09,27.40
2008,06,07,11,10,22.50
2008,06,07,11,11,16.10
2008,06,07,11,12,11.30
2008,06,07,11,13,16.10
2008,06,07,11,14,22.50
2008,06,07,11,15,19.30
2008,06,07,11,16,19.30
2008,06,07,11,17,29.00
2008,06,07,11,18,30.60
2008,06,07,11,19,27.40
2008,06,07,11,20,19.30
2008,06,07,11,21,22.50
2008,06,07,11,22,20.90
2008,06,07,11,23,19.30
2008,06,07,11,24,16.10
2008,06,07,11,25,27.40
2008,06,07,11,26,17.70
2008,06,07,11,27,30.60
2008,06,07,11,28,25.70
2008,06,07,11,29,29.00
2008,06,07,11,30,30.60
2008,06,07,11,31,25.70
2008,06,07,11,32,32.20
2008,06,07,11,33,35.40
2008,06,07,11,34,25.70
2008,06,07,11,35,22.50
2008,06,07,11,36,37.00
2008,06,07,11,37,27.40
2008,06,07,11,38,25.70
2008,06,07,11,39,17.70
2008,06,07,11,40,22.50
2008,06,07,11,41,20.90
2008,06,07,11,42,16.10
2008,06,07,11,43,19.30
2008,06,07,11,44,22.50
2008,06,07,11,45,29.00
2008,06,07,11,46,38.60
2008,06,07,11,47,30.60
2008,06,07,11,48,27.40
2008,06,07,11,49,27.40
2008,06,07,11,50,25.70
2008,06,07,11,51,17.70
2008,06,07,11,52,17.70
2008,06,07,11,53,30.60
2008,06,07,11,54,17.70
2008,06,07,11,55,19.30
2008,06,07,11,56,30.60
2008,06,07,11,57,24.20
2008,06,07,11,58,24.20
2008,06,07,11,59,24.20
2008,06,07,12,00,20.90
2008,06,07,12,01,22.50
2008,06,07,12,02,24.20
2008,06,07,12,03,32.20
2008,06,07,12,04,32.20
2008,06,07,12,05,24.20
2008,06,07,12,06,19.30
2008,06,07,12,07,19.30
2008,06,07,12,08,20.90
2008,06,07,12,09,24.20
2008,06,07,12,10,29.00
2008,06,07,12,11,32.20
2008,06,07,12,12,22.50
2008,06,07,12,13,22.50
2008,06,07,12,14,25.70
2008,06,07,12,15,25.70
2008,06,07,12,16,20.90
2008,06,07,12,17,20.90
2008,06,07,12,18,25.70
2008,06,07,12,19,29.00
2008,06,07,12,20,37.00
2008,06,07,12,21,24.20
2008,06,07,12,22,17.70
2008,06,07,12,23,19.30
2008,06,07,12,24,25.70
2008,06,07,12,25,37.00
2008,06,07,12,26,32.20
2008,06,07,12,27,25.70
2008,06,07,12,28,40.20
2008,06,07,12,29,20.90
2008,06,07,12,30,22.50
2008,06,07,12,31,22.50
2008,06,07,12,32,14.50
2008,06,07,12,33,19.30
2008,06,07,12,34,19.30
2008,06,07,12,35,19.30
2008,06,07,12,36,14.50
2008,06,07,12,37,17.70
2008,06,07,12,38,25.70
2008,06,07,12,39,22.50
2008,06,07,12,40,32.20
2008,06,07,12,41,30.60
2008,06,07,12,42,20.90
2008,06,07,12,43,19.30
2008,06,07,12,44,27.40
2008,06,07,12,45,22.50
2008,06,07,12,46,24.20
2008,06,07,12,47,19.30
2008,06,07,12,48,29.00
2008,06,07,12,49,32.20
2008,06,07,12,50,29.00
2008,06,07,12,51,27.40
2008,06,07,12,52,29.00
2008,06,07,12,53,24.20
2008,06,07,12,54,27.40
2008,06,07,12,55,22.50
2008,06,07,12,56,24.20
2008,06,07,12,57,27.40
2008,06,07,12,58,19.30
2008,06,07,12,59,37.00
2008,06,07,13,00,37.00
2008,06,07,13,01,22.50
2008,06,07,13,02,22.50
2008,06,07,13,03,22.50
2008,06,07,13,04,32.20
2008,06,07,13,05,33.80
2008,06,07,13,06,24.20
2008,06,07,13,07,22.50
2008,06,07,13,08,19.30
2008,06,07,13,09,22.50
2008,06,07,13,10,29.00
2008,06,07,13,11,30.60
2008,06,07,13,12,16.10
2008,06,07,13,13,27.40
2008,06,07,13,14,19.30
2008,06,07,13,15,33.80
2008,06,07,13,16,24.20
2008,06,07,13,17,17.70
2008,06,07,13,18,29.00
2008,06,07,13,19,29.00
2008,06,07,13,20,22.50
2008,06,07,13,21,24.20
2008,06,07,13,22,35.40
2008,06,07,13,23,20.90
2008,06,07,13,24,20.90
2008,06,07,13,25,29.00
2008,06,07,13,26,29.00
2008,06,07,13,27,14.50
2008,06,07,13,28,27.40
2008,06,07,13,29,19.30
2008,06,07,13,30,20.90
2008,06,07,13,31,22.50
2008,06,07,13,32,32.20
2008,06,07,13,33,19.30
2008,06,07,13,34,25.70
2008,06,07,13,35,24.20
2008,06,07,13,36,16.10
2008,06,07,13,37,16.10
2008,06,07,13,38,11.30
2008,06,07,13,39,11.30
2008,06,07,13,40,20.90
2008,06,07,13,41,17.70
2008,06,07,13,42,19.30
2008,06,07,13,43,20.90
2008,06,07,13,44,19.30
2008,06,07,13,45,16.10
2008,06,07,13,46,29.00
2008,06,07,13,47,22.50
2008,06,07,13,48,20.90
2008,06,07,13,49,29.00
2008,06,07,13,50,29.00
2008,06,07,13,51,12.90
2008,06,07,13,52,24.20
2008,06,07,13,53,24.20
2008,06,07,13,54,24.20
2008,06,07,13,55,20.90
2008,06,07,13,56,25.70
2008,06,07,13,57,24.20
2008,06,07,13,58,24.20
2008,06,07,13,59,29.00
2008,06,07,14,00,30.60
2008,06,07,14,01,14.50
2008,06,07,14,02,22.50
2008,06,07,14,03,24.20
2008,06,07,14,04,16.10
2008,06,07,14,05,6.40
2008,06,07,14,06,6.40
2008,06,07,14,07,22.50
2008,06,07,14,08,24.20
2008,06,07,14,09,19.30
2008,06,07,14,10,24.20
2008,06,07,14,11,17.70
2008,06,07,14,12,16.10
2008,06,07,14,13,27.40
2008,06,07,14,14,25.70
2008,06,07,14,15,20.90
2008,06,07,14,16,20.90
2008,06,07,14,17,17.70
2008,06,07,14,18,27.40
2008,06,07,14,19,22.50
2008,06,07,14,20,40.20
2008,06,07,14,21,32.20
2008,06,07,14,22,19.30
2008,06,07,14,23,25.70
2008,06,07,14,24,25.70
2008,06,07,14,25,29.00
2008,06,07,14,26,20.90
2008,06,07,14,27,14.50
2008,06,07,14,28,17.70
2008,06,07,14,29,11.30
2008,06,07,14,30,24.20
2008,06,07,14,31,27.40
2008,06,07,14,32,20.90
2008,06,07,14,33,14.50
2008,06,07,14,34,11.30
2008,06,07,14,35,14.50
2008,06,07,14,36,20.90
2008,06,07,14,37,27.40
2008,06,07,14,38,19.30
2008,06,07,14,39,27.40
2008,06,07,14,40,25.70
2008,06,07,14,41,29.00
2008,06,07,14,42,17.70
2008,06,07,14,43,27.40
2008,06,07,14,44,32.20
2008,06,07,14,45,16.10
2008,06,07,14,46,25.70
2008,06,07,14,47,8.10
2008,06,07,14,48,16.10
2008,06,07,14,49,14.50
2008,06,07,14,50,11.30
2008,06,07,14,51,11.30
2008,06,07,14,52,25.70
2008,06,07,14,53,16.10
2008,06,07,14,54,16.10
2008,06,07,14,55,9.60
2008,06,07,14,56,19.30
2008,06,07,14,57,9.60
2008,06,07,14,58,25.70
2008,06,07,14,59,17.70
2008,06,07,15,00,17.70
2008,06,07,15,01,16.10
2008,06,07,15,02,20.90
2008,06,07,15,03,19.30
2008,06,07,15,04,9.60
2008,06,07,15,05,20.90
2008,06,07,15,06,19.30
2008,06,07,15,07,19.30
2008,06,07,15,08,14.50
2008,06,07,15,09,33.80
2008,06,07,15,10,25.70
2008,06,07,15,11,14.50
2008,06,07,15,12,19.30
2008,06,07,15,13,14.50
2008,06,07,15,14,16.10
2008,06,07,15,15,27.40
2008,06,07,15,16,22.50
2008,06,07,15,17,29.00
2008,06,07,15,18,22.50
2008,06,07,15,19,24.20
2008,06,07,15,20,19.30
2008,06,07,15,21,20.90
2008,06,07,15,22,17.70
2008,06,07,15,23,35.40
2008,06,07,15,24,20.90
2008,06,07,15,25,30.60
2008,06,07,15,26,25.70
2008,06,07,15,27,20.90
2008,06,07,15,28,14.50
2008,06,07,15,29,19.30
2008,06,07,15,30,14.50
2008,06,07,15,31,19.30
2008,06,07,15,32,20.90
2008,06,07,15,33,9.60
2008,06,07,15,34,12.90
2008,06,07,15,35,19.30
2008,06,07,15,36,22.50
2008,06,07,15,37,20.90
2008,06,07,15,38,17.70
2008,06,07,15,39,17.70
2008,06,07,15,40,29.00
2008,06,07,15,41,24.20
2008,06,07,15,42,19.30
2008,06,07,15,43,9.60
2008,06,07,15,44,20.90
2008,06,07,15,45,17.70
2008,06,07,15,46,22.50
2008,06,07,15,47,29.00
2008,06,07,15,48,22.50
2008,06,07,15,49,17.70
2008,06,07,15,50,9.60
2008,06,07,15,51,24.20
2008,06,07,15,52,20.90
2008,06,07,15,53,19.30
2008,06,07,15,54,30.60
2008,06,07,15,55,16.10
2008,06,07,15,56,14.50
2008,06,07,15,57,14.50
2008,06,07,15,58,22.50
2008,06,07,15,59,20.90
2008,06,07,16,00,20.90
2008,06,07,16,01,17.70
2008,06,07,16,02,19.30
2008,06,07,16,03,12.90
2008,06,07,16,04,20.90
2008,06,07,16,05,22.50
2008,06,07,16,06,8.10
2008,06,07,16,07,14.50
2008,06,07,16,08,12.90
2008,06,07,16,09,24.20
2008,06,07,16,10,22.50
2008,06,07,16,11,17.70
2008,06,07,16,12,25.70
2008,06,07,16,13,25.70
2008,06,07,16,14,16.10
2008,06,07,16,15,24.20
2008,06,07,16,16,20.90
2008,06,07,16,17,16.10
2008,06,07,16,18,20.90
2008,06,07,16,19,20.90
2008,06,07,16,20,17.70
2008,06,07,16,21,22.50
2008,06,07,16,22,25.70
2008,06,07,16,23,30.60
2008,06,07,16,24,24.20
2008,06,07,16,25,27.40
2008,06,07,16,26,25.70
2008,06,07,16,27,25.70
2008,06,07,16,28,22.50
2008,06,07,16,29,20.90
2008,06,07,16,30,11.30
2008,06,07,16,31,16.10
2008,06,07,16,32,14.50
2008,06,07,16,33,27.40
2008,06,07,16,34,20.90
2008,06,07,16,35,29.00
2008,06,07,16,36,16.10
2008,06,07,16,37,32.20
2008,06,07,16,38,24.20
2008,06,07,16,39,19.30
2008,06,07,16,40,29.00
2008,06,07,16,41,29.00
2008,06,07,16,42,29.00
2008,06,07,16,43,27.40
2008,06,07,16,44,22.50
2008,06,07,16,45,20.90
2008,06,07,16,46,22.50
2008,06,07,16,47,9.60
2008,06,07,16,48,17.70
2008,06,07,16,49,20.90
2008,06,07,16,50,27.40
2008,06,07,16,51,25.70
2008,06,07,16,52,25.70
2008,06,07,16,53,24.20
2008,06,07,16,54,27.40
2008,06,07,16,55,19.30
2008,06,07,16,56,9.60
2008,06,07,16,57,22.50
2008,06,07,16,58,29.00
2008,06,07,16,59,22.50
2008,06,07,17,00,17.70
2008,06,07,17,01,22.50
2008,06,07,17,02,24.20
2008,06,07,17,03,22.50
2008,06,07,17,04,24.20
2008,06,07,17,05,24.20
2008,06,07,17,06,17.70
2008,06,07,17,07,20.90
2008,06,07,17,08,24.20
2008,06,07,17,09,25.70
2008,06,07,17,10,22.50
2008,06,07,17,11,20.90
2008,06,07,17,12,27.40
2008,06,07,17,13,17.70
2008,06,07,17,14,30.60
2008,06,07,17,15,24.20
2008,06,07,17,16,17.70
2008,06,07,17,17,40.20
2008,06,07,17,18,27.40
2008,06,07,17,19,25.70
2008,06,07,17,20,19.30
2008,06,07,17,21,25.70
2008,06,07,17,22,17.70
2008,06,07,17,23,19.30
2008,06,07,17,24,16.10
2008,06,07,17,25,16.10
2008,06,07,17,26,19.30
2008,06,07,17,27,17.70
2008,06,07,17,28,22.50
2008,06,07,17,29,24.20
2008,06,07,17,30,17.70
2008,06,07,17,31,22.50
2008,06,07,17,32,11.30
2008,06,07,17,33,24.20
2008,06,07,17,34,30.60
2008,06,07,17,35,20.90
2008,06,07,17,36,25.70
2008,06,07,17,37,25.70
2008,06,07,17,38,24.20
2008,06,07,17,39,27.40
2008,06,07,17,40,16.10
2008,06,07,17,41,20.90
2008,06,07,17,42,14.50
2008,06,07,17,43,14.50
2008,06,07,17,44,25.70
2008,06,07,17,45,24.20
2008,06,07,17,46,35.40
2008,06,07,17,47,27.40
2008,06,07,17,48,16.10
2008,06,07,17,49,22.50
2008,06,07,17,50,19.30
2008,06,07,17,51,20.90
2008,06,07,17,52,29.00
2008,06,07,17,53,29.00
2008,06,07,17,54,19.30
2008,06,07,17,55,19.30
2008,06,07,17,56,19.30
2008,06,07,17,57,19.30
2008,06,07,17,58,22.50
2008,06,07,17,59,20.90
2008,06,07,18,00,19.30
2008,06,07,18,01,22.50
2008,06,07,18,02,17.70
2008,06,07,18,03,17.70
2008,06,07,18,04,16.10
2008,06,07,18,05,19.30
2008,06,07,18,06,16.10
2008,06,07,18,07,25.70
2008,06,07,18,08,29.00
2008,06,07,18,09,22.50
2008,06,07,18,10,22.50
2008,06,07,18,11,20.90
2008,06,07,18,12,32.20
2008,06,07,18,13,20.90
2008,06,07,18,14,22.50
2008,06,07,18,15,20.90
2008,06,07,18,16,27.40
2008,06,07,18,17,16.10
2008,06,07,18,18,22.50